Tracking 20041 objects as of 22-Nov-2019
Live streaming from Space Station
objects crossing your sky now

COSMOS 2409

Track COSMOS 2409 now!
10-day predictions
COSMOS 2409 is classified as:


NORAD ID: 28420
Int'l Code: 2004-037B
Perigee: 1,480.1 km
Apogee: 1,502.8 km
Inclination: 82.5 °
Period: 115.6 minutes
Semi major axis: 7862 km
RCS: 1.0044 m2 (large)
Launch date: September 23, 2004
Source: Commonwealth of Independent States (former USSR) (CIS)
Launch site: PLESETSK MISSILE AND SPACE COMPLEX (PKMTR)

Store-dump communications for Russian government and military.
aabbcc
Your satellite tracking list
Your tracking list is empty




NASA's NSSDC Master Catalog

Two Line Element Set (TLE):
1 28420U 04037B   19325.72704630 +.00000016 +00000-0 +44105-4 0  9994
2 28420 082.4899 031.0967 0014438 133.6705 226.5579 12.45276084689175
Source of the keplerian elements: AFSPC